Time,TemperatureF,DewpointF,PressureIn,WindDirection,WindDirectionDegrees,WindSpeedMPH,WindSpeedGustMPH,Humidity,HourlyPrecipIn,Conditions,Clouds,dailyrainin,SoftwareType,DateUTC
2013-05-26 00:03:00,65.0,-99.9,-100.00,SW,215,8.0,11.0,-999,-99.99,,,-99.99,,2013-05-26 04:03:00,
2013-05-26 00:13:00,65.0,-99.9,-100.00,SSW,205,9.0,13.0,-999,-99.99,,,-99.99,,2013-05-26 04:13:00,
2013-05-26 00:23:00,65.0,-99.9,-100.00,SSW,200,9.0,12.0,-999,-99.99,,,-99.99,,2013-05-26 04:23:00,
2013-05-26 00:33:00,64.0,-99.9,-100.00,SSW,205,8.0,11.0,-999,-99.99,,,-99.99,,2013-05-26 04:33:00,
2013-05-26 00:43:00,64.0,-99.9,-100.00,SSW,205,8.0,11.0,-999,-99.99,,,-99.99,,2013-05-26 04:43:00,
2013-05-26 00:53:00,65.0,-99.9,-100.00,SSW,205,8.0,11.0,-999,-99.99,,,-99.99,,2013-05-26 04:53:00,
2013-05-26 01:03:00,65.0,-99.9,-100.00,SSW,205,8.0,11.0,-999,-99.99,,,-99.99,,2013-05-26 05:03:00,
2013-05-26 01:12:00,64.0,-99.9,-100.00,SSW,205,9.0,12.0,-999,-99.99,,,-99.99,,2013-05-26 05:12:00,
2013-05-26 01:22:00,64.0,-99.9,-100.00,SSW,205,7.0,10.0,-999,-99.99,,,-99.99,,2013-05-26 05:22:00,
2013-05-26 01:32:00,64.0,-99.9,-100.00,SSW,200,8.0,12.0,-999,-99.99,,,-99.99,,2013-05-26 05:32:00,
2013-05-26 01:42:00,64.0,-99.9,-100.00,SSW,200,8.0,12.0,-999,-99.99,,,-99.99,,2013-05-26 05:42:00,
2013-05-26 01:52:00,64.0,-99.9,-100.00,SSW,200,10.0,11.0,-999,-99.99,,,-99.99,,2013-05-26 05:52:00,
2013-05-26 02:01:00,64.0,-99.9,-100.00,SSW,200,10.0,11.0,-999,-99.99,,,-99.99,,2013-05-26 06:01:00,
2013-05-26 02:12:00,63.0,-99.9,-100.00,SW,215,9.0,11.0,-999,-99.99,,,-99.99,,2013-05-26 06:12:00,
2013-05-26 02:22:00,64.0,-99.9,-100.00,SSW,210,9.0,11.0,-999,-99.99,,,-99.99,,2013-05-26 06:22:00,
2013-05-26 02:32:00,63.0,-99.9,-100.00,SW,215,8.0,10.0,-999,-99.99,,,-99.99,,2013-05-26 06:32:00,
2013-05-26 02:42:00,63.0,-99.9,-100.00,SW,215,8.0,10.0,-999,-99.99,,,-99.99,,2013-05-26 06:42:00,
2013-05-26 02:52:00,63.0,-99.9,-100.00,SW,230,9.0,11.0,-999,-99.99,,,-99.99,,2013-05-26 06:52:00,
2013-05-26 03:02:00,63.0,-99.9,-100.00,SW,220,8.0,11.0,-999,-99.99,,,-99.99,,2013-05-26 07:02:00,
2013-05-26 03:11:00,63.0,-99.9,-100.00,SW,225,7.0,9.0,-999,-99.99,,,-99.99,,2013-05-26 07:11:00,
2013-05-26 03:22:00,63.0,-99.9,-100.00,SW,220,7.0,9.0,-999,-99.99,,,-99.99,,2013-05-26 07:22:00,
2013-05-26 03:32:00,63.0,-99.9,-100.00,SW,230,6.0,7.0,-999,-99.99,,,-99.99,,2013-05-26 07:32:00,
2013-05-26 03:42:00,63.0,-99.9,-100.00,SW,230,6.0,7.0,-999,-99.99,,,-99.99,,2013-05-26 07:42:00,
2013-05-26 03:52:00,63.0,-99.9,-100.00,WSW,250,8.0,9.0,-999,-99.99,,,-99.99,,2013-05-26 07:52:00,
2013-05-26 04:02:00,63.0,-99.9,-100.00,WSW,255,8.0,9.0,-999,-99.99,,,-99.99,,2013-05-26 08:02:00,
2013-05-26 04:12:00,63.0,-99.9,-100.00,WSW,255,11.0,11.0,-999,-99.99,,,-99.99,,2013-05-26 08:12:00,
2013-05-26 04:22:00,63.0,-99.9,-100.00,West,260,7.0,11.0,-999,-99.99,,,-99.99,,2013-05-26 08:22:00,
2013-05-26 04:32:00,63.0,-99.9,-100.00,WSW,250,11.0,11.0,-999,-99.99,,,-99.99,,2013-05-26 08:32:00,
2013-05-26 04:42:00,63.0,-99.9,-100.00,WSW,250,11.0,11.0,-999,-99.99,,,-99.99,,2013-05-26 08:42:00,
2013-05-26 04:53:00,63.0,-99.9,-100.00,WSW,255,11.0,11.0,-999,-99.99,,,-99.99,,2013-05-26 08:53:00,
2013-05-26 05:02:00,63.0,-99.9,-100.00,WSW,255,11.0,11.0,-999,-99.99,,,-99.99,,2013-05-26 09:02:00,
2013-05-26 05:11:00,63.0,-99.9,-100.00,WSW,255,11.0,12.0,-999,-99.99,,,-99.99,,2013-05-26 09:11:00,
2013-05-26 05:22:00,62.0,-99.9,-100.00,WSW,255,11.0,11.0,-999,-99.99,,,-99.99,,2013-05-26 09:22:00,
2013-05-26 05:34:00,61.0,-99.9,-100.00,West,260,10.0,12.0,-999,-99.99,,,-99.99,,2013-05-26 09:34:00,
2013-05-26 05:43:00,61.0,-99.9,-100.00,West,260,10.0,12.0,-999,-99.99,,,-99.99,,2013-05-26 09:43:00,
2013-05-26 05:53:00,61.0,-99.9,-100.00,West,260,9.0,11.0,-999,-99.99,,,-99.99,,2013-05-26 09:53:00,
2013-05-26 06:03:00,61.0,-99.9,-100.00,West,260,10.0,11.0,-999,-99.99,,,-99.99,,2013-05-26 10:03:00,
2013-05-26 06:12:00,61.0,-99.9,-100.00,WSW,255,11.0,11.0,-999,-99.99,,,-99.99,,2013-05-26 10:12:00,
2013-05-26 06:23:00,61.0,-99.9,-100.00,WSW,250,11.0,11.0,-999,-99.99,,,-99.99,,2013-05-26 10:23:00,
2013-05-26 06:33:00,61.0,-99.9,-100.00,WSW,255,9.0,11.0,-999,-99.99,,,-99.99,,2013-05-26 10:33:00,
2013-05-26 06:43:00,60.0,-99.9,-100.00,West,260,9.0,10.0,-999,-99.99,,,-99.99,,2013-05-26 10:43:00,
2013-05-26 06:52:00,60.0,-99.9,-100.00,WSW,255,9.0,10.0,-999,-99.99,,,-99.99,,2013-05-26 10:52:00,
2013-05-26 07:03:00,60.0,-99.9,-100.00,WSW,255,7.0,10.0,-999,-99.99,,,-99.99,,2013-05-26 11:03:00,
2013-05-26 07:12:00,59.0,-99.9,-100.00,West,260,7.0,9.0,-999,-99.99,,,-99.99,,2013-05-26 11:12:00,
2013-05-26 07:23:00,60.0,-99.9,-100.00,West,265,7.0,9.0,-999,-99.99,,,-99.99,,2013-05-26 11:23:00,
2013-05-26 07:33:00,60.0,-99.9,-100.00,West,265,6.0,10.0,-999,-99.99,,,-99.99,,2013-05-26 11:33:00,
2013-05-26 07:43:00,60.0,-99.9,-100.00,West,275,5.0,9.0,-999,-99.99,,,-99.99,,2013-05-26 11:43:00,
2013-05-26 07:52:00,60.0,-99.9,-100.00,West,275,6.0,9.0,-999,-99.99,,,-99.99,,2013-05-26 11:52:00,
2013-05-26 08:02:00,60.0,-99.9,-100.00,West,270,6.0,9.0,-999,-99.99,,,-99.99,,2013-05-26 12:02:00,
2013-05-26 08:12:00,61.0,-99.9,-100.00,West,260,6.0,10.0,-999,-99.99,,,-99.99,,2013-05-26 12:12:00,
2013-05-26 08:22:00,62.0,-99.9,-100.00,West,265,7.0,10.0,-999,-99.99,,,-99.99,,2013-05-26 12:22:00,
2013-05-26 08:32:00,63.0,-99.9,-100.00,West,260,9.0,14.0,-999,-99.99,,,-99.99,,2013-05-26 12:32:00,
2013-05-26 08:42:00,63.0,-99.9,-100.00,West,260,9.0,14.0,-999,-99.99,,,-99.99,,2013-05-26 12:42:00,
2013-05-26 08:52:00,64.0,-99.9,-100.00,West,265,7.0,11.0,-999,-99.99,,,-99.99,,2013-05-26 12:52:00,
2013-05-26 09:02:00,64.0,-99.9,-100.00,West,265,7.0,11.0,-999,-99.99,,,-99.99,,2013-05-26 13:02:00,
2013-05-26 09:11:00,65.0,-99.9,-100.00,West,265,6.0,11.0,-999,-99.99,,,-99.99,,2013-05-26 13:11:00,
2013-05-26 09:22:00,65.0,-99.9,-100.00,West,270,8.0,16.0,-999,-99.99,,,-99.99,,2013-05-26 13:22:00,
2013-05-26 09:32:00,66.0,-99.9,-100.00,West,275,7.0,13.0,-999,-99.99,,,-99.99,,2013-05-26 13:32:00,
2013-05-26 09:42:00,66.0,-99.9,-100.00,West,270,7.0,11.0,-999,-99.99,,,-99.99,,2013-05-26 13:42:00,
2013-05-26 09:52:00,67.0,-99.9,-100.00,West,260,5.0,14.0,-999,-99.99,,,-99.99,,2013-05-26 13:52:00,
2013-05-26 10:02:00,67.0,-99.9,-100.00,WNW,300,4.0,9.0,-999,-99.99,,,-99.99,,2013-05-26 14:02:00,
2013-05-26 10:11:00,68.0,-99.9,-100.00,West,260,8.0,13.0,-999,-99.99,,,-99.99,,2013-05-26 14:11:00,
2013-05-26 10:22:00,68.0,-99.9,-100.00,West,260,9.0,15.0,-999,-99.99,,,-99.99,,2013-05-26 14:22:00,
2013-05-26 10:32:00,69.0,-99.9,-100.00,West,270,10.0,15.0,-999,-99.99,,,-99.99,,2013-05-26 14:32:00,
2013-05-26 10:42:00,70.0,-99.9,-100.00,West,260,6.0,14.0,-999,-99.99,,,-99.99,,2013-05-26 14:42:00,
2013-05-26 10:52:00,69.0,-99.9,-100.00,West,280,12.0,18.0,-999,-99.99,,,-99.99,,2013-05-26 14:52:00,
2013-05-26 11:02:00,70.0,-99.9,-100.00,West,270,12.0,19.0,-999,-99.99,,,-99.99,,2013-05-26 15:02:00,
2013-05-26 11:12:00,70.0,-99.9,-100.00,West,265,12.0,18.0,-999,-99.99,,,-99.99,,2013-05-26 15:12:00,
2013-05-26 11:22:00,70.0,-99.9,-100.00,West,275,8.0,17.0,-999,-99.99,,,-99.99,,2013-05-26 15:22:00,
2013-05-26 11:33:00,72.0,-99.9,-100.00,West,265,4.0,11.0,-999,-99.99,,,-99.99,,2013-05-26 15:33:00,
2013-05-26 11:43:00,71.0,-99.9,-100.00,West,275,9.0,14.0,-999,-99.99,,,-99.99,,2013-05-26 15:43:00,
2013-05-26 11:53:00,71.0,-99.9,-100.00,West,280,6.0,16.0,-999,-99.99,,,-99.99,,2013-05-26 15:53:00,
2013-05-26 12:03:00,72.0,-99.9,-100.00,WNW,290,8.0,14.0,-999,-99.99,,,-99.99,,2013-05-26 16:03:00,
2013-05-26 12:12:00,72.0,-99.9,-100.00,West,270,9.0,15.0,-999,-99.99,,,-99.99,,2013-05-26 16:12:00,
2013-05-26 12:23:00,72.0,-99.9,-100.00,West,265,7.0,15.0,-999,-99.99,,,-99.99,,2013-05-26 16:23:00,
2013-05-26 12:33:00,73.0,-99.9,-100.00,WNW,300,8.0,11.0,-999,-99.99,,,-99.99,,2013-05-26 16:33:00,
2013-05-26 12:43:00,73.0,-99.9,-100.00,WNW,300,8.0,11.0,-999,-99.99,,,-99.99,,2013-05-26 16:43:00,
2013-05-26 12:53:00,73.0,-99.9,-100.00,WNW,300,6.0,14.0,-999,-99.99,,,-99.99,,2013-05-26 16:53:00,
2013-05-26 13:02:00,74.0,-99.9,-100.00,West,265,7.0,15.0,-999,-99.99,,,-99.99,,2013-05-26 17:02:00,
2013-05-26 13:12:00,75.0,-99.9,-100.00,SW,225,5.0,10.0,-999,-99.99,,,-99.99,,2013-05-26 17:12:00,
2013-05-26 13:32:00,76.0,-99.9,-100.00,NW,305,1.0,9.0,-999,-99.99,,,-99.99,,2013-05-26 17:32:00,
2013-05-26 16:32:00,76.0,-99.9,-100.00,ESE,120,11.0,18.0,-999,-99.99,,,-99.99,,2013-05-26 20:32:00,
2013-05-26 16:42:00,76.0,-99.9,-100.00,ESE,120,11.0,19.0,-999,-99.99,,,-99.99,,2013-05-26 20:42:00,
2013-05-26 16:53:00,76.0,-99.9,-100.00,East,100,13.0,18.0,-999,-99.99,,,-99.99,,2013-05-26 20:53:00,
2013-05-26 17:02:00,76.0,-99.9,-100.00,East,100,13.0,18.0,-999,-99.99,,,-99.99,,2013-05-26 21:02:00,
2013-05-26 17:12:00,76.0,-99.9,-100.00,SSE,155,14.0,20.0,-999,-99.99,,,-99.99,,2013-05-26 21:12:00,
2013-05-26 17:23:00,76.0,-99.9,-100.00,SSE,150,14.0,22.0,-999,-99.99,,,-99.99,,2013-05-26 21:23:00,
2013-05-26 17:33:00,76.0,-99.9,-100.00,SE,140,15.0,23.0,-999,-99.99,,,-99.99,,2013-05-26 21:33:00,
2013-05-26 17:43:00,76.0,-99.9,-100.00,SE,145,11.0,20.0,-999,-99.99,,,-99.99,,2013-05-26 21:43:00,
2013-05-26 17:53:00,75.0,-99.9,-100.00,SSE,160,14.0,24.0,-999,-99.99,,,-99.99,,2013-05-26 21:53:00,
2013-05-26 18:03:00,75.0,-99.9,-100.00,SSE,160,14.0,24.0,-999,-99.99,,,-99.99,,2013-05-26 22:03:00,
2013-05-26 18:23:00,76.0,-99.9,-100.00,SSE,165,14.0,21.0,-999,-99.99,,,-99.99,,2013-05-26 22:23:00,
2013-05-26 18:33:00,75.0,-99.9,-100.00,SSE,160,14.0,20.0,-999,-99.99,,,-99.99,,2013-05-26 22:33:00,
2013-05-26 18:43:00,75.0,-99.9,-100.00,SSE,160,14.0,20.0,-999,-99.99,,,-99.99,,2013-05-26 22:43:00,
2013-05-26 18:53:00,75.0,-99.9,-100.00,SSE,150,12.0,20.0,-999,-99.99,,,-99.99,,2013-05-26 22:53:00,
2013-05-26 19:02:00,75.0,-99.9,-100.00,SSE,160,9.0,17.0,-999,-99.99,,,-99.99,,2013-05-26 23:02:00,
2013-05-26 19:12:00,75.0,-99.9,-100.00,SSE,155,9.0,14.0,-999,-99.99,,,-99.99,,2013-05-26 23:12:00,
2013-05-26 19:22:00,75.0,-99.9,-100.00,South,175,9.0,14.0,-999,-99.99,,,-99.99,,2013-05-26 23:22:00,
2013-05-26 19:32:00,75.0,-99.9,-100.00,SSE,160,9.0,11.0,-999,-99.99,,,-99.99,,2013-05-26 23:32:00,
2013-05-26 19:43:00,75.0,-99.9,-100.00,SSE,150,7.0,12.0,-999,-99.99,,,-99.99,,2013-05-26 23:43:00,
2013-05-26 19:52:00,74.0,-99.9,-100.00,SSE,160,12.0,14.0,-999,-99.99,,,-99.99,,2013-05-26 23:52:00,
2013-05-26 20:02:00,74.0,-99.9,-100.00,South,190,5.0,14.0,-999,-99.99,,,-99.99,,2013-05-27 00:02:00,
2013-05-26 20:12:00,74.0,-99.9,-100.00,South,185,7.0,13.0,-999,-99.99,,,-99.99,,2013-05-27 00:12:00,
2013-05-26 20:22:00,74.0,-99.9,-100.00,South,170,6.0,10.0,-999,-99.99,,,-99.99,,2013-05-27 00:22:00,
2013-05-26 20:32:00,74.0,-99.9,-100.00,SSE,165,6.0,13.0,-999,-99.99,,,-99.99,,2013-05-27 00:32:00,
2013-05-26 20:42:00,74.0,-99.9,-100.00,SSE,165,6.0,13.0,-999,-99.99,,,-99.99,,2013-05-27 00:42:00,
2013-05-26 20:52:00,73.0,-99.9,-100.00,SSW,195,6.0,11.0,-999,-99.99,,,-99.99,,2013-05-27 00:52:00,
2013-05-26 21:01:00,73.0,-99.9,-100.00,South,185,9.0,13.0,-999,-99.99,,,-99.99,,2013-05-27 01:01:00,
2013-05-26 21:11:00,72.0,-99.9,-100.00,SSW,200,6.0,14.0,-999,-99.99,,,-99.99,,2013-05-27 01:11:00,
2013-05-26 21:22:00,72.0,-99.9,-100.00,SSW,200,9.0,11.0,-999,-99.99,,,-99.99,,2013-05-27 01:22:00,
2013-05-26 21:32:00,72.0,-99.9,-100.00,South,190,8.0,11.0,-999,-99.99,,,-99.99,,2013-05-27 01:32:00,
2013-05-26 21:42:00,72.0,-99.9,-100.00,South,190,8.0,12.0,-999,-99.99,,,-99.99,,2013-05-27 01:42:00,
2013-05-26 21:52:00,71.0,-99.9,-100.00,South,170,5.0,10.0,-999,-99.99,,,-99.99,,2013-05-27 01:52:00,
2013-05-26 22:02:00,71.0,-99.9,-100.00,SSW,200,8.0,9.0,-999,-99.99,,,-99.99,,2013-05-27 02:02:00,
2013-05-26 22:11:00,71.0,-99.9,-100.00,SW,215,4.0,10.0,-999,-99.99,,,-99.99,,2013-05-27 02:11:00,
2013-05-26 22:22:00,71.0,-99.9,-100.00,SSW,195,5.0,9.0,-999,-99.99,,,-99.99,,2013-05-27 02:22:00,
2013-05-26 22:32:00,71.0,-99.9,-100.00,South,185,2.0,6.0,-999,-99.99,,,-99.99,,2013-05-27 02:32:00,
2013-05-26 22:43:00,71.0,-99.9,-100.00,SSW,200,3.0,5.0,-999,-99.99,,,-99.99,,2013-05-27 02:43:00,
2013-05-26 22:52:00,71.0,-99.9,-100.00,SW,220,5.0,6.0,-999,-99.99,,,-99.99,,2013-05-27 02:52:00,
2013-05-26 23:02:00,71.0,-99.9,-100.00,SW,220,6.0,7.0,-999,-99.99,,,-99.99,,2013-05-27 03:02:00,
2013-05-26 23:11:00,71.0,-99.9,-100.00,SSW,210,5.0,7.0,-999,-99.99,,,-99.99,,2013-05-27 03:11:00,
2013-05-26 23:22:00,70.0,-99.9,-100.00,SW,215,6.0,9.0,-999,-99.99,,,-99.99,,2013-05-27 03:22:00,
2013-05-26 23:33:00,70.0,-99.9,-100.00,SSW,210,5.0,8.0,-999,-99.99,,,-99.99,,2013-05-27 03:33:00,
2013-05-26 23:43:00,70.0,-99.9,-100.00,SSW,200,4.0,6.0,-999,-99.99,,,-99.99,,2013-05-27 03:43:00,
2013-05-26 23:54:00,70.0,-99.9,-100.00,SSW,210,5.0,6.0,-999,-99.99,,,-99.99,,2013-05-27 03:54:00,